When you browse on this site, cookies collect data to enhance your experience and personalize the content and advertising you see.
Visit our Privacy Policy to learn more. By continuing to use the site, you agree to this use of cookies and data.
  • In Germany
  • List of Countries
  • For 7 days
  • Water Temperature
  • Weather Map
  • Weather Widgets
  • user-avatar
    Login

    Hourly Weather Chakhansur

    Today, 23 January, Thursday

    Time Temperature Precipitation Wind Pressure Humidity
    00:00 +12°C° 0 mm 4 mps 724 mmHg 51%
    01:00 +12°C° 0 mm 5 mps 723 mmHg 51%
    02:00 +12°C° 0 mm 5 mps 723 mmHg 52%
    03:00 +10°C° 0 mm 5 mps 722 mmHg 52%
    04:00 +10°C° 0 mm 5 mps 722 mmHg 53%
    05:00 +10°C° 0 mm 5 mps 722 mmHg 54%
    06:00 +10°C° 0 mm 5 mps 722 mmHg 55%
    07:00 +9°C° 0 mm 5 mps 722 mmHg 56%
    08:00 +10°C° 0 mm 5 mps 723 mmHg 54%
    09:00 +11°C° 0 mm 6 mps 723 mmHg 51%
    10:00 +13°C° 0 mm 6 mps 723 mmHg 48%
    11:00 +14°C° 0 mm 5 mps 722 mmHg 47%
    12:00 +15°C° 0 mm 5 mps 722 mmHg 45%
    13:00 +17°C° 0 mm 5 mps 721 mmHg 44%
    14:00 +18°C° 0 mm 4 mps 720 mmHg 43%
    15:00 +18°C° 0 mm 4 mps 720 mmHg 43%
    16:00 +19°C° 0 mm 4 mps 719 mmHg 42%
    17:00 +18°C° 0 mm 4 mps 719 mmHg 45%
    18:00 +17°C° 0 mm 4 mps 718 mmHg 48%
    19:00 +15°C° 0 mm 5 mps 718 mmHg 51%
    20:00 +15°C° 0 mm 5 mps 718 mmHg 53%
    21:00 +15°C° 0 mm 6 mps 718 mmHg 55%
    22:00 +15°C° 0 mm 7 mps 718 mmHg 58%
    23:00 +15°C° 0.1 mm 6 mps 718 mmHg 60%

    Tomorrow, 24 January, Friday

    Time Temperature Precipitation Wind Pressure Humidity
    00:00 +15°C° 0.1 mm 6 mps 718 mmHg 63%
    01:00 +15°C° 0.1 mm 5 mps 717 mmHg 66%
    02:00 +14°C° 0.9 mm 5 mps 717 mmHg 75%
    03:00 +13°C° 0.9 mm 4 mps 717 mmHg 83%
    04:00 +12°C° 0.9 mm 4 mps 717 mmHg 92%
    05:00 +12°C° 0.5 mm 4 mps 717 mmHg 91%
    06:00 +12°C° 0.5 mm 4 mps 718 mmHg 90%
    07:00 +12°C° 0.5 mm 4 mps 718 mmHg 90%
    08:00 +12°C° 0.3 mm 4 mps 719 mmHg 87%
    09:00 +13°C° 0.3 mm 4 mps 719 mmHg 84%
    10:00 +13°C° 0.3 mm 4 mps 720 mmHg 81%
    11:00 +13°C° 0.1 mm 4 mps 719 mmHg 79%
    12:00 +14°C° 0.1 mm 4 mps 719 mmHg 77%
    13:00 +14°C° 0.1 mm 4 mps 719 mmHg 75%
    14:00 +14°C° 0.1 mm 5 mps 719 mmHg 75%
    15:00 +14°C° 0.1 mm 5 mps 718 mmHg 75%
    16:00 +14°C° 0.1 mm 6 mps 718 mmHg 75%
    17:00 +13°C° 0 mm 5 mps 718 mmHg 76%
    18:00 +12°C° 0 mm 5 mps 719 mmHg 78%
    19:00 +12°C° 0 mm 4 mps 719 mmHg 79%
    20:00 +11°C° 0 mm 4 mps 720 mmHg 81%
    21:00 +11°C° 0 mm 4 mps 720 mmHg 82%
    22:00 +10°C° 0 mm 3 mps 720 mmHg 83%
    23:00 +10°C° 0 mm 3 mps 720 mmHg 83%

    Day after tomorrow, 25 January, Saturday

    Time Temperature Precipitation Wind Pressure Humidity
    00:00 +10°C° 0 mm 3 mps 720 mmHg 84%
    01:00 +8°C° 0 mm 4 mps 720 mmHg 84%
    02:00 +9°C° 0 mm 3 mps 720 mmHg 84%
    03:00 +9°C° 0 mm 3 mps 720 mmHg 84%
    04:00 +9°C° 0 mm 3 mps 720 mmHg 84%
    05:00 +8°C° 0 mm 3 mps 721 mmHg 83%
    06:00 +8°C° 0 mm 3 mps 721 mmHg 83%
    07:00 +8°C° 0 mm 3 mps 721 mmHg 83%
    08:00 +9°C° 0 mm 3 mps 722 mmHg 75%
    09:00 +11°C° 0 mm 4 mps 722 mmHg 68%
    10:00 +12°C° 0 mm 4 mps 722 mmHg 61%
    11:00 +13°C° 0 mm 4 mps 722 mmHg 57%
    12:00 +14°C° 0 mm 3 mps 721 mmHg 53%
    13:00 +16°C° 0 mm 3 mps 721 mmHg 49%
    14:00 +16°C° 0 mm 3 mps 721 mmHg 47%
    15:00 +16°C° 0 mm 3 mps 720 mmHg 45%
    16:00 +17°C° 0 mm 3 mps 720 mmHg 44%
    17:00 +16°C° 0 mm 3 mps 720 mmHg 46%
    18:00 +14°C° 0 mm 3 mps 720 mmHg 49%
    19:00 +13°C° 0 mm 3 mps 721 mmHg 51%
    20:00 +13°C° 0 mm 3 mps 721 mmHg 52%
    21:00 +12°C° 0 mm 3 mps 721 mmHg 53%
    22:00 +12°C° 0 mm 3 mps 721 mmHg 54%
    23:00 +11°C° 0 mm 3 mps 721 mmHg 55%

    26 January, Sunday

    Time Temperature Precipitation Wind Pressure Humidity
    00:00 +11°C° 0 mm 3 mps 720 mmHg 56%
    01:00 +10°C° 0 mm 2 mps 720 mmHg 58%
    02:00 +10°C° 0 mm 3 mps 720 mmHg 59%
    03:00 +10°C° 0 mm 3 mps 720 mmHg 60%
    04:00 +9°C° 0 mm 3 mps 720 mmHg 61%
    05:00 +9°C° 0 mm 3 mps 720 mmHg 60%
    06:00 +9°C° 0 mm 3 mps 720 mmHg 60%
    07:00 +9°C° 0 mm 3 mps 721 mmHg 60%
    08:00 +9°C° 0 mm 3 mps 721 mmHg 58%
    09:00 +10°C° 0 mm 3 mps 721 mmHg 56%
    10:00 +10°C° 0 mm 3 mps 721 mmHg 54%
    11:00 +11°C° 0 mm 3 mps 720 mmHg 51%
    12:00 +12°C° 0 mm 3 mps 719 mmHg 47%
    13:00 +13°C° 0 mm 3 mps 719 mmHg 43%
    14:00 +13°C° 0 mm 3 mps 719 mmHg 44%
    15:00 +13°C° 0 mm 4 mps 718 mmHg 46%
    16:00 +14°C° 0 mm 4 mps 718 mmHg 47%
    17:00 +13°C° 0 mm 3 mps 718 mmHg 52%
    18:00 +12°C° 0 mm 3 mps 718 mmHg 56%
    19:00 +11°C° 0 mm 3 mps 719 mmHg 61%
    20:00 +11°C° 0 mm 3 mps 719 mmHg 62%
    21:00 +10°C° 0 mm 4 mps 719 mmHg 63%
    22:00 +9°C° 0 mm 5 mps 719 mmHg 64%
    23:00 +8°C° 0 mm 5 mps 719 mmHg 65%

    27 January, Monday

    Time Temperature Precipitation Wind Pressure Humidity
    00:00 +7°C° 0 mm 5 mps 719 mmHg 65%
    01:00 +7°C° 0 mm 5 mps 718 mmHg 66%
    02:00 +6°C° 0 mm 5 mps 718 mmHg 66%
    03:00 +6°C° 0 mm 5 mps 718 mmHg 67%
    04:00 +6°C° 0 mm 5 mps 718 mmHg 67%
    05:00 +6°C° 0 mm 5 mps 719 mmHg 66%
    06:00 +5°C° 0 mm 5 mps 719 mmHg 66%
    07:00 +5°C° 0 mm 5 mps 719 mmHg 65%
    08:00 +6°C° 0 mm 5 mps 720 mmHg 59%
    09:00 +8°C° 0 mm 6 mps 720 mmHg 53%
    10:00 +9°C° 0 mm 7 mps 721 mmHg 47%
    11:00 +10°C° 0 mm 7 mps 720 mmHg 43%
    12:00 +11°C° 0 mm 7 mps 720 mmHg 39%
    13:00 +12°C° 0 mm 8 mps 720 mmHg 35%
    14:00 +12°C° 0 mm 8 mps 719 mmHg 35%
    15:00 +12°C° 0 mm 8 mps 719 mmHg 34%
    16:00 +12°C° 0 mm 8 mps 719 mmHg 33%
    17:00 +11°C° 0 mm 8 mps 719 mmHg 37%
    18:00 +10°C° 0 mm 7 mps 720 mmHg 41%
    19:00 +9°C° 0 mm 7 mps 720 mmHg 45%
    20:00 +7°C° 0 mm 8 mps 720 mmHg 48%
    21:00 +6°C° 0 mm 8 mps 721 mmHg 51%
    22:00 +6°C° 0 mm 8 mps 721 mmHg 53%
    23:00 +5°C° 0 mm 8 mps 721 mmHg 54%

    28 January, Tuesday

    Time Temperature Precipitation Wind Pressure Humidity
    00:00 +5°C° 0 mm 9 mps 721 mmHg 56%
    01:00 +3°C° 0 mm 9 mps 721 mmHg 57%
    02:00 +3°C° 0 mm 9 mps 721 mmHg 56%
    03:00 +3°C° 0 mm 9 mps 721 mmHg 56%
    04:00 +2°C° 0 mm 9 mps 721 mmHg 55%
    05:00 +2°C° 0 mm 10 mps 721 mmHg 54%
    06:00 +2°C° 0 mm 10 mps 722 mmHg 54%
    07:00 +2°C° 0 mm 10 mps 722 mmHg 53%
    08:00 +2°C° 0 mm 10 mps 723 mmHg 50%
    09:00 +3°C° 0 mm 10 mps 723 mmHg 47%
    10:00 +4°C° 0 mm 11 mps 724 mmHg 44%
    11:00 +6°C° 0 mm 11 mps 723 mmHg 41%
    12:00 +7°C° 0 mm 11 mps 723 mmHg 38%
    13:00 +8°C° 0 mm 11 mps 722 mmHg 34%
    14:00 +8°C° 0 mm 11 mps 722 mmHg 35%
    15:00 +8°C° 0 mm 11 mps 722 mmHg 36%
    16:00 +8°C° 0 mm 11 mps 722 mmHg 36%
    17:00 +7°C° 0 mm 11 mps 722 mmHg 40%
    18:00 +6°C° 0 mm 11 mps 722 mmHg 44%
    19:00 +4°C° 0 mm 11 mps 722 mmHg 48%
    20:00 +3°C° 0 mm 11 mps 723 mmHg 50%
    21:00 +2°C° 0 mm 11 mps 723 mmHg 52%
    22:00 +1°C° 0 mm 11 mps 723 mmHg 54%
    23:00 +1°C° 0 mm 10 mps 723 mmHg 53%
    Show more